Regional Weather Roundup
Issued by NWS

Home | Current Version | Previous Version | Graphics & Text | Print | Product List | Glossary On
Versions: 1 2 3 4 5 6 7 8 9 10 11 12 13 14 15 16 17 18 19 20 21 22 23 24 25 26 27 28 29 30 31 32 33 34 35 36 37 38 39 40 41 42 43 44 45 46 47 48 49 50
000
ASUS44 KMEG 012310
RWRTN
TENNESSEE HOURLY STATE WEATHER ROUNDUP
NATIONAL WEATHER SERVICE MEMPHIS TN
500 PM CST SUN FEB 01 2015

TNZ002-004-019-021-049-052-054-088>092-020000-
WEST TENNESSEE

CITY           SKY/WX    TMP DP  RH WIND       PRES   REMARKS
MEMPHIS INTL   CLOUDY    53  49  86 W16       29.76R
NWS MEMPHIS      N/A     52 N/A N/A MISG        N/A
JACKSON        CLOUDY    53  49  86 W14       29.71R FOG
DYERSBURG      CLOUDY    52  39  62 W9        29.72R
UNION CITY     CLOUDY    50  50 100 W8        29.67R
PARIS          CLOUDY    48  48 100 W12       29.67R
LEXINGTON      CLOUDY    54  54 100 SW9       29.66S
SAVANNAH       CLOUDY    55  55 100 S13       29.69F
$$

TNZ008-025-027-028-033-062-065-066-020000-
NORTH MIDDLE TENNESSEE

CITY           SKY/WX    TMP DP  RH WIND       PRES   REMARKS
NASHVILLE      HVY RAIN  55  53  93 S12G20    29.67F FOG
CLARKSVILLE    LGT RAIN  53  52  96 SW8       29.64F FOG
SMYRNA         LGT RAIN  54  52  93 SW12G17   29.68F
COOKEVILLE     CLOUDY    52  52 100 S10       29.70F
CROSSVILLE     LGT RAIN  48  45  89 S8G17     29.75F FOG
$$

TNZ061-075-076-078-094-096-097-020000-
SOUTH MIDDLE TENNESSEE

CITY           SKY/WX    TMP DP  RH WIND       PRES   REMARKS
FAYETTEVILLE   CLOUDY    54  52  94 MISG      29.73F
TULLAHOMA      CLOUDY    52  52 100 S12       29.73F
WINCHESTER     CLOUDY    54  52  94 S17       29.75F
MCMINNVILLE    CLOUDY    54  54 100 S10       29.71F
COLUMBIA       CLOUDY   N/A N/A N/A S15       29.67S
SHELBYVILLE    CLOUDY    55  55 100 S16       29.71F
$$

TNZ017-018-042-046-047-020000-
NORTHEAST TENNESSEE

CITY           SKY/WX    TMP DP  RH WIND       PRES   REMARKS
TRI CITIES     LGT RAIN  50  43  77 SE3       29.84F
ELIZABETHTON   LGT RAIN  48  39  71 SE7       29.86F
$$

TNZ012-013-036-069-073-074-020000-
CENTRAL EAST TENNESSEE

CITY           SKY/WX    TMP DP  RH WIND       PRES   REMARKS
KNOXVILLE      LGT RAIN  44  42  93 VRB3      29.79F
OAK RIDGE      LGT RAIN  44  43  96 W5        29.81F FOG
GATLINBURG     CLOUDY    45  43  93 N3        29.78F
MORRISTOWN     CLOUDY    43  37  81 NE3       29.80F
$$

TNZ083-085-099-020000-
SOUTHEAST TENNESSEE

CITY           SKY/WX    TMP DP  RH WIND       PRES   REMARKS
CHATTANOOGA    LGT RAIN  52  49  89 S12G18    29.83F FOG
$$

SKY/WX REPORTED AS FAIR MEANS FEW OR NO CLOUDS BELOW
12 THOUSAND FEET.



USA.gov is the U.S. government's official web portal to all federal, state and local government web resources and services.